Regional Weather Roundup
Issued by NWS

Home | Current Version | Previous Version | Text Only | Print | Product List | Glossary Off
Versions: 1 2 3 4 5 6 7 8 9 10 11 12 13 14 15 16 17 18 19 20 21 22 23 24 25 26 27 28 29 30 31 32 33 34 35 36 37 38 39 40 41 42 43 44 45 46 47 48 49 50

722
ASUS43 KDMX 221206
RWRIA

WEATHER ROUNDUP FOR IOWA
NATIONAL WEATHER SERVICE DES MOINES IA
700 AM CDT TUE AUG 22 2017

NOTE: "FAIR" INDICATES FEW OR NO CLOUDS BELOW 12,000 FEET WITH NO
SIGNIFICANT WEATHER AND/OR OBSTRUCTIONS TO VISIBILITY.

* - THESE STATIONS ARE NOT NWS STATIONS...THUS NOT UNDER NWS
QUALITY CONTROL.  THEY ALSO DO NOT REPORT WEATHER SUCH
AS PRECIPITATION OR FOG.

IAZ001>003-012>014-020>022-031>034-043>046-221300-
   NORTHWEST IOWA

CITY           SKY/WX    TMP DP  RH WIND       PRES   REMARKS
CARROLL *      CLEAR     63  61  94 NW8       30.07R
CHEROKEE *     CLEAR     56  56  97 N7        30.10R
DENISON *      CLEAR     61  59  94 CALM      30.11R
LE MARS *      CLEAR    106 N/A N/A CALM      30.11R
ORANGE CITY *  CLEAR     55  55 100 NW7       30.11R
SHELDON *      CLEAR     52  52 100 NW6       30.09R
SIOUX CITY     CLEAR     57  56  96 NW6       30.11R
6HR MIN TEMP:  57; 6HR MAX TEMP:  63;

SPENCER        CLEAR     54  51  90 NW6       30.08R
6HR MIN TEMP:  54; 6HR MAX TEMP:  61;

STORM LAKE *   CLEAR     55  52  88 NW10      30.09R
$$

IAZ055>058-069>071-079>083-090>094-221300-
   SOUTHWEST IOWA

CITY           SKY/WX    TMP DP  RH WIND       PRES   REMARKS
ATLANTIC *     CLEAR     61  61 100 CALM      30.08R
AUDUBON *      CLEAR     61  59  94 CALM      30.08R
CLARINDA *     CLOUDY    64  64 100 N7        30.10R FOG
COUNCIL BLFS * CLOUDY    64  64 100 N5        30.10R
CRESTON *      CLOUDY    63  63 100 NW13      30.07S FOG
HARLAN  *      CLEAR     61  61 100 CALM      30.12R FOG
LAMONI         CLOUDY    63  62  97 NW9       30.04R
6HR MIN TEMP:  63; 6HR MAX TEMP:  66; 6HR PCP:  0.15;

RED OAK *      FOG       64  64 100 CALM      30.09R VSB 3/4
SHENANDOAH *   CLOUDY    64  64 100 NW6       30.09S FOG
$$

IAZ047>049-059>061-072>074-084-221300-
   CENTRAL IOWA

CITY           SKY/WX    TMP DP  RH WIND       PRES   REMARKS
AMES           CLEAR     61  61 100 W7        30.02R
6HR MIN TEMP:  61; 6HR MAX TEMP:  65;

ANKENY *       CLEAR     64  61  88 NW9       30.03R
BOONE *        CLEAR     61  59  94 W6        30.03R
CHARITON *     CLOUDY    64  63  94 W7        30.02R
DES MOINES     PTCLDY    64  62  93 NW10      30.02R
6HR MIN TEMP:  64; 6HR MAX TEMP:  67; 6HR PCP:  0.07;

GRINNELL*      CLEAR     63  61  95 W9        30.00R
KNOXVILLE *    MOCLDY    64  63  94 NW9G15    29.99S
MARSHALLTOWN   CLEAR     62  61  96 W9        29.99R
6HR MIN TEMP:  62; 6HR MAX TEMP:  65;

NEWTON *       CLEAR     63  63 100 NW10      30.00R
PELLA *        MOCLDY    64  62  94 W9        30.01S
PERRY *          N/A     60  60  98 W3        30.05R
$$

IAZ004>006-015-016-023>025-035-036-221300-
   NORTH CENTRAL IOWA

CITY           SKY/WX    TMP DP  RH WIND       PRES   REMARKS
ALGONA *       CLEAR     57  55  94 NW9       30.05R
CLARION *      CLEAR     59  59 100 NW9G15    30.03R
ESTHERVILLE    CLEAR     54  54 100 NW9       30.05R
6HR MIN TEMP:  54; 6HR MAX TEMP:  61;

FORT DODGE *   CLEAR     59  54  82 NW3       30.04R
FOREST CITY *    N/A     59  57  94 NW9       30.01R
WEBSTER CITY * CLEAR     59  57  94 NW8       30.01R
IOWA FALLS *     N/A     60  59  95 W6        30.01R
$$

IAZ007>011-017>019-026>030-037>042-050>054-066-221300-
   NORTHEAST IOWA

CITY           SKY/WX    TMP DP  RH WIND       PRES   REMARKS
CEDAR RAPIDS   CLOUDY    63  63 100 W13       29.95R
6HR MIN TEMP:  63; 6HR MAX TEMP:  66; 6HR PCP:  0.02;

CHARLES CITY * CLEAR     61  61 100 NW9       29.97R
CLINTON *      CLOUDY    65  64  97 W8        29.93R
DECORAH *      MOCLDY    61  61 100 VRB6      29.93R
DUBUQUE        CLOUDY    64  62  93 MISG      29.92S
6HR MIN TEMP:  63; 6HR MAX TEMP:  67;

MONTICELLO *   CLOUDY    64  63  94 W8        29.92S
OELWEIN *      MOCLDY    63  63 100 NW12      29.96R
WATERLOO       CLEAR     62  60  93 NW9       29.96R
6HR MIN TEMP:  62; 6HR MAX TEMP:  64;

$$

IAZ064-065-067-068-078-221300-
   EAST CENTRAL IOWA

CITY           SKY/WX    TMP DP  RH WIND       PRES   REMARKS
DAVENPORT      CLOUDY    66  64  93 W6        29.95R
6HR MIN TEMP:  66; 6HR MAX TEMP:  71; 6HR PCP:  0.01;

IOWA CITY      MOCLDY    66  63  90 W7        29.97R
6HR MIN TEMP:  66; 6HR MAX TEMP:  69; 6HR PCP:  0.02;

MT. PLEASANT * CLOUDY    65  65 100 W5        29.97S
MUSCATINE *    CLOUDY    66  64  94 SW5       29.96R
QUAD CITIES    CLOUDY    68  65  90 W6        29.93R
6HR MIN TEMP:  68; 6HR MAX TEMP:  72; 6HR PCP:  0.09;

$$

IAZ062-063-075>077-085>089-095>099-221300-
   SOUTHEAST IOWA

CITY           SKY/WX    TMP DP  RH WIND       PRES   REMARKS
BURLINGTON     CLOUDY    67  66  97 NW6       29.96R
6HR MIN TEMP:  67; 6HR MAX TEMP:  69; 6HR PCP:  0.18;

FAIRFIELD *    CLOUDY    66  63  88 W10       29.97S
FORT MADISON * CLOUDY    66  66 100 NW5       29.97S
KEOKUK *       CLOUDY    66  64  94 N8        29.95F
OSKALOOSA *      N/A     64  63  97 NW9       29.99S
OTTUMWA        MOCLDY    66  64  93 NW10      29.98R
6HR MIN TEMP:  65; 6HR MAX TEMP:  69; 6HR PCP:  0.13;

WASHINGTON *   CLOUDY    64  64 100 W8G15     29.97R
$$

ABBREVIATIONS USED IN REMARKS
   TC - TEMPERATURES IN CELSIUS
  WCI - WIND CHILL INDEX
   HX - HEAT INDEX
  VSB - VISIBILITY
$$





USA.gov is the U.S. government's official web portal to all federal, state and local government web resources and services.